Location: Kailua
(21.4020°N, 157.7390°W)
Time: 02:05:18
(UTC-10:00)

Daily predictions for brighter satellites

Satellite Brightness Start Highest point End
(mag) Time Altitude Azimuth Time Altitude Azimuth Time Altitude Azimuth
Cosmos 2333 Rocket 4.1 03:37:18 26° NE 03:37:18 26° NE 03:39:55 10° NE
Hubble Space Telescope 4.0 03:51:37 12° ENE 03:51:37 12° ENE 03:51:55 10° ENE
VEP-3 4.3 02:43:58 10° WSW 03:53:25 83° SSE 04:00:53 10° E
Okean O Rocket 4.4 03:52:44 10° NNE 03:53:10 13° NNE 03:53:10 13° NNE
SL-16 R/B 4.4 04:01:58 10° SSE 04:06:02 21° ESE 04:10:09 10° NE
Cosmos 1980 4.1 04:16:32 56° NNE 04:16:32 56° NNE 04:20:56 10° NNE
CZ-4B R/B 3.4 04:12:30 10° NNE 04:17:17 65° NE 04:17:17 65° NE
Cosmos 2219 Rocket 3.6 04:23:05 26° NNW 04:23:05 26° NNW 04:25:39 10° N
CZ-4B DEB 4.3 04:16:04 10° NNE 04:20:55 69° NNE 04:20:55 69° NNE
ADEOS II 2.5 04:24:30 10° N 04:28:28 51° N 04:28:28 51° N
Cosmos 2285 Rocket 3.9 04:31:55 66° WNW 04:31:55 66° WNW 04:38:15 10° N
GOES 2 Rocket 4.2 04:33:05 38° N 04:33:19 38° N 04:38:18 10° ENE
Cosmos 1844 Rocket 3.1 04:31:09 10° N 04:36:38 60° ENE 04:42:06 10° SSE
IRAS Rocket 4.1 04:36:59 10° N 04:42:28 63° WNW 04:42:47 62° W
ASTRO E2 4.2 04:46:10 28° SSE 04:46:10 28° SSE 04:48:20 10° SE
Cosmos 405 Rocket 3.0 04:45:27 64° NNE 04:45:27 64° NNE 04:48:54 10° N
Meteor 1-23 Rocket 4.1 04:43:02 32° S 04:45:55 83° W 04:51:42 10° N
NOSS 3-1 (A) 3.2 04:44:28 45° SSW 04:46:20 86° ESE 04:52:18 10° NNE
NOSS 3-1 (C) 3.2 04:47:01 57° W 04:47:42 62° WNW 04:53:36 10° NNE
Cosmos 1666 3.0 04:44:05 10° N 04:47:56 67° E 04:51:47 10° SSE
Cosmos 2237 Rocket 2.5 04:51:42 44° WNW 04:51:42 44° WNW 04:56:57 10° N
Cosmos 962 Rocket 4.4 04:47:07 10° N 04:53:26 81° W 04:59:47 10° S
Cosmos 2278 Rocket 3.9 04:52:58 10° N 04:58:03 34° ENE 05:03:07 10° SE
Cosmos 371 Rocket 3.1 04:57:52 34° SSW 05:00:00 80° WNW 05:04:52 10° NNE
GPS 2-14 Rocket1 2.5 05:00:12 71° SW 05:00:31 77° S 05:04:34 10° E
ATLAS 5 CENTAUR R/B 4.1 04:56:04 10° N 05:01:48 35° ENE 05:07:46 10° SE
Cosmos 1898 Rocket 3.8 04:57:53 10° N 05:03:01 66° ENE 05:08:08 10° SSE
GPS 2-18 Rocket1 3.2 05:03:18 57° SSW 05:03:31 58° S 05:07:25 10° ESE
Skynet4D Del rocket 4.4 05:01:10 28° SSW 05:04:00 49° SSE 05:10:19 10° E
Cosmos 332 Rocket 4.0 05:03:55 44° WSW 05:04:48 49° WNW 05:09:32 10° N
Meteor 2-4 Rocket 4.1 05:05:28 36° W 05:06:02 37° W 05:11:07 10° NNW
Cosmos 1025 Rocket 3.8 05:11:02 31° WNW 05:11:02 31° WNW 05:14:18 10° NNW
Cosmos 1763 Rocket 3.7 05:09:16 36° WSW 05:10:31 43° WNW 05:15:20 10° N
Meteor PRIRODA 4.2 05:09:21 10° N 05:12:31 37° WNW 05:12:31 37° WNW
EO 1 Del DPAF 3.5 05:13:29 42° W 05:13:29 42° W 05:17:03 10° NNW
Cosmos 2154 Rocket 4.5 05:07:55 10° NNW 05:13:26 35° W 05:18:59 10° SSW
SJ-6F 4.4 05:09:27 10° NNE 05:13:31 82° E 05:17:36 10° S
Cosmos 2333 Rocket 3.8 05:19:20 16° WNW 05:19:20 16° WNW 05:22:23 10° NNW
Okean 2 3.9 05:18:34 32° WSW 05:19:24 36° W 05:23:15 10° NNW
Meteor 1-31 Rocket 3.0 05:16:53 10° N 05:20:31 45° WNW 05:22:24 24° SW
XTE 2.7 05:20:21 54° WSW 05:20:55 87° SSE 05:23:52 10° E
Tiangong 2 3.1 05:19:09 10° NNW 05:21:48 25° NE 05:24:29 10° E
Atlas Centaur 2 3.9 05:20:18 10° S 05:22:06 13° SSE 05:23:49 10° SE
Cosmos 858 Rocket 4.4 05:17:40 10° NNW 05:22:56 88° WSW 05:28:08 10° SSE
USA 116 3.9 05:21:22 10° SSE 05:25:20 87° ENE 05:29:53 10° N
Cosmos 841 Rocket 4.0 05:23:33 20° SW 05:26:29 37° WNW 05:31:14 10° N
Fermi 4.0 05:25:47 26° W 05:27:50 58° N 05:31:50 10° ENE
Cosmos 836 Rocket 4.4 05:22:44 10° SSW 05:28:00 71° WNW 05:33:16 10° N
Cosmos 1937 Rocket 3.6 05:23:27 10° NNW 05:28:45 85° ENE 05:34:00 10° SSE
SL-8 Rocket 3.9 05:22:46 10° NNW 05:28:53 67° W 05:34:58 10° S
Cosmos 1726 Rocket 3.7 05:24:50 10° N 05:29:18 79° E 05:33:44 10° S
Hubble Space Telescope 2.1 05:26:59 17° WNW 05:29:24 31° N 05:33:05 10° ENE
Iridium 2 3.7 05:25:41 10° N 05:29:27 58° W 05:33:13 10° S
Meteor 1-15 Rocket 4.3 05:23:40 10° N 05:29:36 84° W 05:35:28 10° S
Cosmos 1892 Rocket 3.9 05:26:14 10° SSW 05:30:19 42° W 05:34:27 10° NNW
ERS-2 3.2 05:28:00 10° NNW 05:31:03 25° WNW 05:31:44 23° W
Delta 142 4.4 05:26:40 17° WNW 05:32:07 67° SSW 05:37:29 10° ESE
Cosmos 540 Rocket 3.4 05:27:02 10° SSW 05:32:09 89° E 05:37:15 10° NNE
Palapa B4 Rocket 3.9 05:33:31 20° WSW 05:36:02 40° S 05:41:26 10° ESE
Abrixas rocket 2.9 05:39:13 20° W 05:40:56 36° NW 05:43:59 10° NNE
Cosmos 864 Rocket 4.5 05:34:57 10° N 05:41:10 81° W 05:47:27 10° S
Cosmos 1066 Rocket 4.3 05:35:53 10° S 05:41:39 84° E 05:47:16 10° N
FUSE 4.3 05:39:14 14° WNW 05:43:43 58° N 05:49:02 10° ENE
OAO 3 Rocket 3.1 05:39:53 15° WSW 05:43:49 88° NNW 05:48:29 10° ENE
SEDSat Delta rocket 4.4 05:43:05 10° SW 05:47:35 35° SSE 05:51:37 10° E
Cosmos 1809 Rocket 4.4 05:42:35 10° N 05:48:46 79° W 05:54:53 10° S
SL-16 R/B 2.9 05:44:49 10° SW 05:49:49 32° WNW 05:54:51 10° N
Cosmos 1626 Rocket 3.6 05:45:52 10° S 05:50:18 87° W 05:54:47 10° N
GPS 2-15 Rocket1 3.6 05:46:41 12° WSW 05:50:52 51° S 05:55:24 10° E
Okean-O 3.8 05:47:45 10° NNW 05:51:08 22° WNW 05:54:32 10° WSW
Cosmos 1844 4.4 05:47:16 10° NW 05:52:13 31° WSW 05:57:07 10° SSW
NOAA 6 4.4 05:48:19 10° N 05:53:06 42° WNW 05:57:53 10° SW
Meteor 1-28 Rocket 4.4 05:50:08 10° SSE 05:53:47 47° ENE 05:57:27 10° N
ORS 1 (USA 231) 4.5 05:51:52 11° WSW 05:54:51 75° NW 05:57:58 10° NE
Cosmos 1602 Rocket 3.5 05:53:54 10° S 05:58:17 72° W 06:02:42 10° N
Cosmos 2218 Rocket 4.4 05:54:32 10° NNW 06:00:25 41° W 06:06:13 10° SSW
CSL-04 Rocket 4.2 05:56:16 10° NNE 06:01:47 68° ESE 06:07:16 10° S
USA 215 3.4 06:00:10 10° SE 06:06:44 86° NE 06:13:17 10° NW
EPKM 4.2 05:55:23 10° WNW 06:10:57 45° SW 06:14:56 10° SE
